Wind_Speed
15 15 14 14 13 12 11 11 10 9 9 9 9 9 8 8 7 7 6 5 5 5 5 5 6 5 5 5 5 5 5 4 4 4 3 3 3 3 3 2 2 2 2
16 16 16 15 14 14 13 12 11 11 10 9 9 9 9 9 9 8 7 7 6 6 7 7 6 6 6 6 6 6 6 6 5 4 4 4 4 4 4 3 4 3 3
18 17 17 16 16 15 15 14 13 12 11 11 11 11 10 10 10 10 9 8 7 7 7 7 7 7 7 7 7 7 6 6 6 5 5 5 5 5 5 5 5 4 4
20 19 19 18 17 17 16 15 15 14 13 12 12 12 12 12 11 10 10 10 9 9 8 8 9 9 8 8 8 7 7 6 6 6 7 7 7 6 6 6 6 6 6
21 21 20 20 19 19 18 17 17 16 15 14 14 14 13 13 13 13 12 11 11 11 11 10 10 11 10 9 9 8 9 8 8 8 7 7 7 8 8 8 8 8 8
23 22 22 22 21 20 20 20 19 18 17 16 16 16 15 15 15 15 14 14 13 13 13 12 12 12 12 11 11 11 10 10 10 9 9 9 8 8 8 9 9 9 9
24 24 23 23 23 22 22 21 20 20 19 19 18 18 18 17 17 17 16 16 15 15 14 14 14 14 14 14 13 13 12 12 11 10 10 10 10 10 10 10 10 11 11
25 25 25 24 24 24 24 23 22 22 21 20 20 20 20 20 19 19 18 18 18 17 16 16 16 16 15 15 15 14 14 14 13 12 12 12 12 12 12 12 12 12 12
28 27 26 26 26 26 25 24 24 24 23 22 22 21 21 21 21 20 20 19 19 19 18 18 18 17 17 16 16 15 15 15 14 14 13 13 13 13 14 14 14 14 14
29 29 29 28 28 28 27 26 25 25 24 23 23 23 23 23 22 22 22 21 20 20 20 19 19 18 18 17 17 17 16 16 15 15 15 15 15 15 15 15 15 15 16
30 30 31 30 29 29 29 28 28 27 26 25 25 24 25 24 24 24 24 23 22 21 21 21 20 20 19 19 18 18 18 18 17 17 16 16 17 17 17 17 17 17 17
31 31 31 31 30 30 30 30 30 29 28 28 27 26 26 26 26 26 26 25 24 24 23 23 22 22 21 21 20 19 19 20 20 19 18 18 18 19 19 19 18 18 19
32 33 33 32 32 32 31 31 32 31 30 29 29 29 28 28 28 28 28 27 26 26 26 25 25 24 23 23 23 22 21 21 21 21 20 20 20 21 21 21 20 20 20
33 34 34 34 34 33 33 33 33 33 33 32 31 31 31 30 30 30 30 29 29 28 28 28 27 27 27 26 25 25 24 24 23 23 22 22 22 22 22 22 22 21 21
34 35 35 35 35 35 35 34 34 34 34 34 34 33 32 32 31 32 32 32 31 30 30 30 30 29 29 29 28 27 27 26 26 25 24 24 24 24 24 24 23 23 23
36 36 36 36 36 36 36 35 36 35 35 36 35 35 35 34 34 33 34 34 33 32 32 32 32 30 30 30 30 30 29 28 28 27 27 26 26 26 26 26 26 25 24
36 37 38 37 37 37 37 36 36 36 36 36 36 36 36 36 36 36 35 36 35 35 34 34 34 32 32 32 31 31 31 31 30 29 29 28 28 28 28 28 28 27 26
37 37 38 38 38 38 37 37 37 36 37 37 37 36 37 36 36 36 36 36 36 37 36 36 35 33 33 33 33 33 32 32 32 32 31 31 31 30 30 29 29 29 29
38 38 38 39 39 38 38 39 38 38 38 39 39 38 37 37 36 36 36 37 37 37 36 37 36 36 36 35 35 34 34 34 34 34 34 33 33 32 32 31 31 31 30
37 37 38 39 39 40 40 40 40 40 39 39 40 40 40 38 38 38 38 38 38 38 37 37 37 37 37 37 37 36 36 36 36 36 36 35 35 34 34 33 33 33 32
35 37 37 39 40 40 40 41 42 40 40 40 40 40 41 40 39 40 40 39 39 39 39 39 40 40 39 39 39 38 38 38 37 37 37 37 36 36 36 36 35 35 35
36 37 38 39 39 40 40 40 40 40 40 40 41 40 40 40 40 40 40 41 41 41 42 42 42 43 42 42 41 40 40 40 39 38 37 37 37 37 37 37 37 37 37
37 38 39 39 40 41 40 40 41 41 41 40 40 41 42 42 41 41 41 41 42 43 43 43 42 44 44 44 43 42 42 42 41 40 39 39 38 37 37 38 38 38 39
38 38 39 39 40 41 41 41 41 42 42 42 41 42 44 44 44 43 42 42 42 43 44 44 44 45 46 46 46 45 44 43 42 41 41 40 40 39 39 39 39 40 39
39 38 39 40 40 41 42 42 42 43 44 44 44 44 44 44 45 45 44 44 44 44 44 46 46 45 47 48 47 47 46 45 44 43 42 41 41 41 41 40 40 40 40
39 39 39 40 41 41 41 42 43 44 44 44 44 45 44 45 45 45 45 45 45 45 44 45 46 46 46 47 47 47 47 46 45 45 44 43 43 42 42 42 42 41 42
Wind_Direction
238 239 241 242 242 241 241 239 237 239 242 244 243 239 235 235 238 243 247 250 229 216 210 211 214 214 214 216 223 231 233 238 243 245 250 248 235 247 259 271 284 285 271
240 240 241 243 243 243 243 243 241 242 244 243 243 241 237 236 240 244 246 247 233 220 222 223 223 228 225 226 230 235 239 243 247 248 254 255 253 258 261 264 274 276 277
242 242 242 243 244 244 245 244 242 243 244 243 241 242 241 241 243 246 246 245 238 232 228 229 232 235 236 240 242 238 241 244 245 251 258 262 266 266 263 263 266 271 273
243 243 243 243 244 245 245 245 242 243 245 243 241 242 243 245 245 246 247 246 241 241 239 237 238 241 242 247 247 244 244 247 250 254 258 261 264 267 265 265 266 267 268
242 243 244 244 245 246 246 245 244 243 244 244 243 242 243 246 245 244 244 246 245 244 243 240 241 243 246 251 250 248 248 247 250 254 259 262 264 267 270 270 268 268 269
242 243 244 245 246 246 247 247 245 244 244 245 244 244 244 246 247 246 243 244 245 245 245 243 246 249 249 250 252 250 251 251 252 255 259 262 265 269 272 273 270 268 269
242 243 244 245 245 245 246 247 247 246 245 246 246 246 245 245 246 247 245 245 247 249 248 248 248 250 251 252 253 251 253 253 252 255 258 261 264 268 271 271 271 268 268
244 244 245 245 246 247 247 247 248 248 248 249 249 247 246 246 247 248 248 248 249 250 251 250 249 250 251 251 252 255 253 253 254 257 259 262 265 268 269 269 269 266 265
244 245 247 247 247 248 248 248 248 249 249 250 249 248 247 247 247 249 249 248 249 250 251 252 251 250 249 251 253 254 254 254 253 256 259 262 266 268 270 269 268 266 266
245 245 246 247 248 248 249 248 248 248 250 250 250 249 248 248 247 247 249 248 248 248 249 251 251 250 251 251 253 255 256 257 257 257 258 259 263 266 269 270 269 267 266
245 246 246 246 247 248 248 248 247 248 250 250 250 249 248 249 248 248 249 249 248 247 248 250 250 249 249 251 252 254 257 257 259 260 261 261 263 265 268 270 269 268 267
246 246 247 247 246 247 248 249 249 249 250 251 250 250 249 249 249 249 249 249 247 247 248 250 251 251 251 252 251 254 257 258 260 263 264 263 264 265 268 269 270 268 268
247 246 246 247 246 247 248 249 249 249 251 251 252 252 251 249 249 248 248 248 247 248 249 250 251 251 252 253 253 255 257 259 261 263 264 264 265 266 269 269 269 269 267
246 247 247 247 247 248 249 250 250 250 250 251 252 253 253 251 248 248 247 248 248 249 250 251 250 250 250 253 254 256 260 261 261 262 263 264 265 267 269 270 270 269 269
246 246 247 248 248 248 248 249 250 250 250 250 252 252 251 251 250 249 248 248 249 249 250 250 249 249 250 252 254 257 259 259 260 261 262 263 264 266 267 270 270 270 269
248 248 248 249 248 248 248 248 249 249 251 251 251 252 251 250 251 250 250 249 249 249 250 251 251 251 252 253 254 255 257 260 260 261 262 263 264 266 268 269 269 270 269
249 249 249 249 248 248 247 247 248 249 251 251 252 252 251 250 250 250 250 250 250 250 251 252 252 252 253 253 254 255 256 258 260 262 262 264 266 267 268 268 269 269 269
250 250 250 249 249 250 248 248 248 249 250 251 252 252 251 250 249 249 250 250 251 251 251 252 252 251 252 253 254 255 256 257 259 260 262 264 265 265 266 266 267 268 268
253 251 250 250 250 251 250 249 248 249 250 251 250 251 251 250 250 249 249 250 251 251 251 251 251 251 252 253 254 255 255 256 258 259 262 263 263 264 265 265 265 266 267
254 252 252 252 252 253 253 251 250 249 250 251 252 251 250 251 250 250 250 251 251 251 251 251 252 252 253 253 254 254 255 256 258 259 260 262 262 263 264 265 265 265 266
254 254 254 254 254 253 254 252 250 249 251 251 250 250 251 251 251 251 251 251 251 251 251 251 252 253 254 254 255 255 256 257 258 259 260 262 263 263 263 264 265 265 266
256 256 256 255 255 254 254 252 250 249 251 251 249 248 249 250 251 251 251 251 251 252 253 253 255 255 254 254 255 256 257 258 258 259 260 262 262 263 264 265 265 265 266
257 256 255 255 255 255 254 252 251 250 250 251 250 250 249 249 251 253 252 252 252 252 252 254 254 255 255 255 256 257 259 259 259 260 261 261 262 264 264 264 265 266 266
258 257 256 256 255 255 254 252 252 251 251 252 251 252 251 250 251 252 252 252 253 253 253 254 256 256 255 255 256 257 259 259 260 260 260 261 262 263 265 265 265 266 267
260 258 257 256 256 256 255 254 254 253 253 253 253 253 252 251 252 252 253 253 254 254 254 254 256 258 257 256 256 257 258 258 259 259 260 261 263 264 265 266 267 268 267
261 259 258 258 258 257 256 255 254 254 254 254 254 253 252 252 252 252 253 254 254 254 255 255 256 258 257 257 257 257 257 257 258 258 258 260 262 264 265 266 267 268 268
Height
5831 5832 5833 5834 5835 5836 5837 5838 5839 5840 5841 5841 5842 5843 5844 5845 5846 5847 5847 5847 5847 5848 5849 5850 5852 5853 5855 5856 5857 5858 5859 5860 5861 5862 5862 5863 5864 5864 5864 5864 5864 5865 5865
5828 5829 5830 5832 5833 5834 5835 5836 5837 5838 5839 5840 5841 5842 5843 5844 5845 5846 5846 5847 5847 5848 5849 5850 5851 5852 5854 5855 5856 5857 5858 5859 5860 5861 5862 5862 5863 5863 5864 5864 5864 5864 5864
5825 5826 5827 5829 5830 5831 5833 5834 5835 5836 5837 5838 5839 5840 5841 5842 5843 5844 5845 5846 5847 5847 5848 5849 5850 5851 5853 5854 5855 5856 5857 5858 5859 5860 5860 5861 5862 5862 5862 5863 5863 5863 5863
5821 5823 5824 5826 5827 5828 5830 5831 5832 5834 5835 5836 5837 5838 5839 5840 5841 5843 5844 5845 5846 5847 5848 5848 5849 5850 5852 5853 5854 5855 5856 5857 5858 5858 5859 5860 5860 5861 5861 5861 5862 5862 5863
5818 5819 5821 5822 5824 5825 5827 5828 5829 5831 5832 5833 5834 5836 5837 5838 5839 5841 5842 5843 5844 5845 5846 5847 5848 5849 5850 5851 5852 5853 5854 5855 5856 5857 5857 5858 5859 5859 5859 5860 5860 5861 5861
5813 5815 5817 5818 5820 5822 5823 5825 5826 5827 5829 5830 5831 5833 5834 5835 5836 5838 5839 5840 5842 5843 5844 5845 5846 5847 5848 5849 5850 5851 5852 5853 5854 5855 5856 5856 5857 5857 5858 5858 5859 5859 5859
5809 5811 5813 5814 5816 5818 5819 5821 5822 5824 5825 5826 5828 5829 5831 5832 5833 5834 5836 5837 5839 5840 5841 5843 5844 5845 5846 5847 5848 5849 5850 5851 5852 5853 5854 5854 5855 5855 5856 5856 5857 5857 5857
5804 5806 5808 5810 5812 5813 5815 5816 5818 5820 5821 5823 5824 5825 5827 5828 5829 5831 5832 5834 5836 5837 5838 5839 5841 5842 5843 5844 5845 5846 5847 5848 5849 5850 5851 5852 5853 5853 5854 5854 5854 5855 5855
5799 5801 5803 5805 5807 5809 5810 5812 5813 5815 5817 5818 5820 5821 5823 5824 5826 5827 5829 5830 5832 5833 5835 5836 5837 5838 5839 5841 5842 5843 5844 5845 5846 5847 5848 5849 5850 5850 5851 5851 5852 5852 5852
5793 5796 5798 5800 5802 5804 5805 5807 5808 5810 5812 5813 5815 5816 5818 5820 5821 5823 5824 5826 5828 5829 5831 5832 5834 5835 5836 5837 5839 5840 5841 5842 5843 5844 5845 5846 5847 5847 5848 5848 5848 5849 5849
5787 5790 5792 5794 5796 5798 5799 5801 5803 5805 5806 5808 5810 5811 5813 5815 5817 5818 5820 5822 5823 5825 5826 5828 5829 5831 5832 5833 5835 5836 5837 5838 5840 5841 5841 5842 5843 5844 5844 5844 5844 5845 5845
5781 5783 5785 5787 5789 5791 5793 5795 5797 5799 5801 5803 5804 5806 5808 5809 5811 5813 5815 5816 5818 5820 5821 5823 5825 5827 5828 5829 5831 5832 5833 5834 5835 5836 5837 5838 5839 5839 5840 5840 5840 5841 5841
5774 5776 5778 5780 5782 5785 5787 5789 5791 5793 5795 5796 5798 5800 5802 5803 5805 5807 5809 5811 5812 5814 5816 5818 5820 5821 5823 5825 5826 5827 5828 5830 5831 5832 5833 5833 5834 5835 5835 5836 5836 5836 5837
5767 5769 5771 5773 5775 5778 5780 5781 5784 5786 5788 5790 5791 5793 5795 5797 5799 5801 5803 5805 5807 5808 5810 5812 5814 5816 5817 5819 5821 5822 5823 5825 5826 5827 5827 5828 5829 5830 5830 5831 5831 5831 5832
5759 5762 5763 5765 5768 5770 5772 5774 5776 5779 5780 5782 5784 5786 5788 5790 5792 5794 5796 5798 5800 5801 5803 5805 5807 5809 5811 5813 5815 5816 5818 5819 5820 5821 5822 5823 5824 5824 5825 5825 5826 5826 5827
5751 5754 5755 5758 5760 5762 5764 5766 5768 5770 5772 5774 5776 5778 5780 5782 5784 5786 5789 5791 5793 5795 5797 5799 5801 5803 5804 5806 5808 5810 5811 5813 5814 5815 5816 5817 5818 5819 5819 5820 5820 5820 5821
5743 5745 5747 5749 5751 5753 5756 5758 5760 5761 5764 5766 5768 5770 5772 5774 5776 5779 5781 5783 5785 5787 5789 5791 5793 5795 5797 5799 5801 5803 5804 5806 5807 5809 5810 5811 5811 5812 5813 5813 5814 5814 5815
5735 5737 5738 5741 5743 5745 5747 5749 5751 5752 5754 5757 5759 5761 5763 5765 5768 5770 5772 5775 5777 5779 5781 5784 5786 5788 5790 5792 5793 5795 5797 5798 5800 5801 5803 5804 5805 5805 5806 5807 5807 5808 5808
5726 5728 5729 5732 5734 5736 5738 5739 5741 5743 5745 5747 5750 5752 5754 5756 5759 5761 5763 5766 5768 5770 5773 5775 5778 5780 5781 5783 5785 5787 5789 5791 5792 5794 5795 5796 5797 5798 5799 5799 5800 5801 5801
5717 5718 5720 5722 5724 5726 5728 5730 5732 5734 5736 5737 5740 5742 5745 5747 5749 5752 5754 5757 5759 5761 5764 5766 5769 5771 5773 5775 5777 5779 5781 5783 5784 5786 5787 5788 5789 5790 5791 5791 5792 5793 5794
5707 5709 5711 5713 5714 5716 5718 5720 5722 5724 5726 5728 5730 5732 5734 5737 5739 5742 5745 5747 5750 5752 5754 5757 5759 5762 5764 5766 5768 5770 5772 5774 5775 5777 5778 5780 5781 5782 5783 5783 5784 5785 5786
5698 5700 5702 5703 5705 5706 5708 5710 5712 5714 5716 5718 5719 5721 5724 5726 5729 5732 5734 5737 5740 5742 5745 5747 5749 5752 5754 5757 5759 5761 5763 5765 5766 5768 5769 5771 5772 5773 5774 5775 5775 5776 5777
5689 5691 5692 5693 5695 5696 5698 5700 5702 5704 5706 5708 5710 5712 5714 5717 5719 5722 5724 5727 5729 5732 5734 5736 5738 5741 5744 5746 5748 5751 5753 5755 5757 5759 5760 5761 5762 5764 5764 5765 5766 5766 5767
5679 5680 5682 5683 5685 5686 5688 5690 5692 5695 5697 5699 5701 5702 5704 5706 5709 5712 5714 5716 5719 5721 5724 5726 5727 5730 5733 5735 5737 5740 5742 5745 5747 5749 5750 5751 5752 5754 5754 5755 5756 5756 5757
5669 5670 5671 5673 5674 5676 5678 5680 5682 5684 5687 5688 5690 5692 5693 5696 5698 5701 5704 5706 5708 5710 5713 5715 5717 5719 5721 5724 5726 5728 5731 5733 5735 5738 5740 5741 5742 5743 5744 5745 5746 5746 5747
5659 5660 5661 5663 5664 5666 5667 5669 5671 5673 5675 5677 5679 5681 5683 5685 5687 5690 5693 5695 5697 5700 5702 5704 5706 5707 5709 5712 5714 5717 5719 5722 5724 5726 5729 5731 5732 5733 5734 5734 5735 5736 5736